Flag for USA

Past Weather in Pensacola, Florida, USA — Yesterday and Last 2 Weeks

Now
86 °F

Scattered clouds.


Feels Like: 94 °F
Forecast: 86 / 76 °F
Wind: 12 mph from West

Location: Pensacola Regional Airport

Current Time: Jul 7, 2020 at 10:28:13 am

Latest Report: Jul 7, 2020 at 9:53 am


Visibility: 10 mi

Pressure: 30.01 "Hg

Humidity: 67%

Dew Point: 74 °F

Location of PensacolaLocation

Past Weather in Pensacola — Graph

°F

Pensacola Temperature Yesterday

Maximum temperature yesterday: 86 °F (at 3:57 pm)
Minimum temperature yesterday: 75 °F (at 5:53 am)
Average temperature yesterday: 80 °F

High & Low Weather Summary for the Past Weeks

 TemperatureHumidityPressure
High93 °F (Jul 1, 1:53 pm)94% (Jun 25, 6:53 am)30.19 "Hg (Jun 25, 6:53 am)
Low72 °F (Jun 23, 12:39 pm)52% (Jun 30, 4:53 pm)29.85 "Hg (Jul 4, 3:40 pm)
Average82 °F78%29.99 "Hg
* Reported Jun 22 8:53 am — Jul 7 8:53 am, Pensacola. Weather by CustomWeather, © 2020

Note: Actual official high and low records may vary slightly from our data, if they occured in-between our weather recording intervals... More about our weather records

Pensacola Weather History for the Previous 24 Hours

Scroll right to see more
 ConditionsComfort  
Time TempWeatherWind HumidityBarometerVisibility
8:53 am
Tue, Jul 7
84 °FPassing clouds.9 mph74%30.01 "Hg10 mi
7:53 am80 °FPassing clouds.9 mph81%30.01 "Hg10 mi
7:40 am79 °FBroken clouds.8 mph84%30.00 "Hg10 mi
7:21 am78 °FBroken clouds.8 mph87%30.00 "Hg10 mi
6:53 am77 °FPassing clouds.5 mph90%30.00 "Hg10 mi
5:53 am77 °FBroken clouds.6 mph88%29.98 "Hg10 mi
4:53 am78 °FBroken clouds.5 mph87%29.97 "Hg10 mi
3:53 am78 °FPassing clouds.7 mph84%29.96 "Hg10 mi
2:53 am79 °FPassing clouds.5 mph82%29.96 "Hg10 mi
1:53 am78 °FClear.7 mph87%29.95 "Hg10 mi
12:53 am78 °FPassing clouds.3 mph90%29.97 "Hg10 mi
11:53 pm
Mon, Jul 6
79 °FClear.No wind84%29.96 "Hg10 mi
10:53 pm78 °FClear.3 mph90%29.96 "Hg10 mi
9:53 pm79 °FPassing clouds.3 mph84%29.95 "Hg10 mi
8:53 pm80 °FOvercast.5 mph85%29.95 "Hg10 mi
7:53 pm80 °FPassing clouds.No wind87%29.93 "Hg10 mi
6:53 pm80 °FPassing clouds.3 mph85%29.93 "Hg10 mi
5:53 pm81 °FLight rain. More clouds than sun.7 mph85%29.93 "Hg9 mi
4:53 pm82 °FPassing clouds.12 mph74%29.93 "Hg10 mi
4:34 pm83 °FPartly sunny.16 mph72%29.93 "Hg10 mi
4:07 pm85 °FThundershowers. Partly sunny.16 mph72%29.93 "Hg10 mi
3:57 pm86 °FThundershowers. Scattered clouds.13 mph70%29.93 "Hg10 mi
2:53 pm85 °FScattered clouds.6 mph75%29.94 "Hg10 mi
1:53 pm82 °FSunny.6 mph79%29.94 "Hg10 mi
12:55 pm79 °FLight rain. Mostly cloudy.5 mph94%29.95 "Hg9 mi
12:37 pm77 °FThundershowers. Fog.6 mph94%29.95 "Hg2 mi
12:06 pm78 °FThundershowers. Fog.6 mph87%29.97 "Hg2 mi
11:58 am78 °FHeavy rain. Fog.9 mph87%29.96 "Hg1 mi
11:43 am84 °FThundershowers. Partly sunny.9 mph74%29.95 "Hg10 mi
11:00 am83 °FPartly sunny.7 mph77%29.95 "Hg10 mi
Weather by CustomWeather, © 2020

See weather overview